Wind_Speed
29 29 28 28 28 27 27 27 27 27 27 26 26 25 25 25 25 25 24 24 24 24 24 25 26 26 27 27 28 28 28 28 28 28 28 28 28 28 28 28 28 29 29
28 28 28 28 28 28 27 27 27 27 27 26 26 26 25 25 25 24 24 24 24 23 23 24 25 25 26 26 26 26 26 26 26 26 27 27 27 27 27 27 27 27 28
27 27 27 27 27 27 27 27 27 27 27 26 25 25 24 24 24 25 24 24 23 23 23 23 23 24 24 25 25 25 24 24 24 25 25 26 26 26 26 26 26 26 26
25 25 26 25 25 25 25 25 25 25 24 24 24 23 24 24 23 23 23 22 22 22 22 22 22 22 22 22 22 22 22 22 22 22 23 24 24 25 25 25 25 25 26
24 23 23 23 23 23 23 23 22 21 21 21 21 21 22 21 21 21 21 21 21 20 20 20 20 19 19 18 19 19 20 20 20 20 20 20 21 22 23 23 23 23 23
22 21 20 20 20 20 20 20 19 19 19 19 20 20 19 19 20 20 20 20 19 18 18 18 18 18 17 17 18 17 17 17 17 17 17 18 18 19 19 20 20 20 20
19 18 18 18 18 18 18 18 18 19 19 19 18 18 18 17 17 17 16 16 16 16 16 16 16 15 16 15 15 15 15 15 15 15 15 16 16 16 16 17 17 17 18
16 16 17 17 16 17 16 17 17 17 16 15 15 15 14 14 13 12 12 13 13 13 13 12 12 12 12 11 12 13 12 12 12 12 12 13 13 13 13 14 14 15 15
15 14 15 15 15 15 15 16 15 14 13 13 12 11 11 10 10 10 11 11 10 10 10 9 9 9 8 9 10 10 10 9 9 9 9 10 10 10 10 10 11 11 12
12 13 13 13 14 14 14 13 13 13 12 11 10 9 8 8 8 8 8 7 6 6 6 6 6 6 6 6 7 6 6 6 6 6 6 6 6 7 7 7 8 9 9
11 11 12 12 12 13 12 11 11 10 9 8 7 7 6 6 6 5 4 3 2 2 2 2 2 2 2 2 2 3 3 3 3 3 3 3 4 5 5 5 6 6 7
10 10 10 10 10 10 9 9 8 7 6 6 5 5 5 5 5 5 5 4 4 3 2 2 2 2 3 2 2 1 1 0 0 0 0 1 2 3 3 4 5 5 6
9 9 9 8 8 8 7 6 6 6 6 6 6 6 6 7 7 7 7 7 8 7 7 6 6 6 6 5 5 4 4 4 3 3 3 2 3 3 3 3 4 5 6
8 8 8 7 7 7 7 7 7 7 7 7 7 8 8 8 8 9 9 9 9 9 10 10 9 8 8 7 7 7 7 6 5 4 4 4 4 4 4 4 5 6 6
8 8 8 8 8 8 8 9 8 9 9 8 9 9 10 10 11 11 11 11 11 11 11 11 10 10 10 9 8 8 8 7 6 6 5 5 5 5 5 5 6 6 7
9 9 9 10 10 11 11 11 11 11 10 10 10 10 11 11 11 11 11 11 11 11 11 12 12 11 10 10 9 9 8 8 8 7 7 6 6 6 6 6 7 7 8
11 11 11 11 12 12 13 13 13 13 13 12 12 12 12 12 12 12 12 12 11 12 12 12 12 11 11 10 10 10 9 9 9 8 8 8 8 8 8 8 8 9 10
11 12 12 12 12 12 13 13 13 14 14 14 14 14 14 14 13 13 13 13 13 14 14 13 12 12 11 10 10 10 10 9 9 9 9 9 9 9 10 10 10 10 12
12 12 12 12 12 12 13 13 14 14 15 15 15 16 16 16 15 14 14 14 14 14 13 13 12 11 11 11 10 9 9 10 10 10 10 10 10 10 11 12 12 13 13
11 11 12 12 12 13 13 14 14 14 15 16 16 16 16 16 15 15 15 15 14 14 14 13 12 12 11 11 10 10 10 10 10 10 10 11 12 12 13 14 14 15 16
11 11 12 12 12 13 13 13 14 14 15 15 15 15 15 15 15 15 14 14 14 14 13 13 12 12 12 11 11 11 11 11 11 12 12 13 13 14 15 15 16 17 18
11 11 12 12 12 13 13 13 14 14 14 14 14 14 14 14 14 14 14 14 13 13 12 12 12 12 12 12 11 11 12 12 12 13 13 14 15 15 16 17 18 19 20
10 11 11 12 12 12 12 13 13 13 13 13 13 13 13 13 13 13 13 13 12 12 12 12 12 12 12 12 12 12 13 13 13 14 15 16 17 18 19 19 20 21 22
9 9 10 10 11 11 11 11 11 11 11 11 11 11 11 12 12 12 11 11 11 11 11 11 11 12 12 12 13 13 14 14 15 16 17 18 19 20 20 21 22 23 25
7 8 8 8 9 9 8 8 9 9 9 9 9 9 9 10 10 10 10 10 10 10 10 11 11 12 12 13 14 14 15 16 17 18 19 20 21 22 22 23 24 25 27
5 6 6 6 6 6 6 6 6 7 7 7 7 7 7 7 7 7 7 8 8 9 10 11 12 13 14 14 15 16 17 19 20 20 21 22 23 24 25 26 27 28 29
Wind_Direction
294 293 293 294 292 291 290 290 289 289 288 287 286 285 285 284 283 281 280 280 278 277 274 271 268 266 265 265 266 266 264 263 263 263 263 263 264 264 263 265 265 265 266
294 293 293 293 292 291 290 290 289 288 287 287 286 286 284 282 281 280 280 278 277 276 274 272 270 268 266 265 265 264 264 263 263 263 263 264 265 265 265 266 265 265 265
294 293 292 292 291 290 289 289 288 287 286 286 285 285 283 283 282 280 280 278 276 274 273 272 270 269 267 265 262 262 264 264 265 265 264 264 264 264 264 264 263 263 264
294 293 292 292 291 291 290 291 290 288 287 287 286 284 282 282 282 281 280 278 277 275 273 271 269 269 267 264 263 263 263 264 263 264 265 265 265 264 265 264 264 263 263
294 294 295 296 296 296 295 295 294 293 291 289 288 286 283 282 281 281 281 279 278 275 272 270 269 269 268 265 264 262 263 263 264 264 264 264 263 263 265 266 265 263 262
295 296 297 298 298 299 300 299 298 297 295 293 291 290 287 285 283 283 282 280 278 275 272 270 270 269 266 264 263 263 264 264 263 264 263 262 262 264 265 266 265 265 265
297 297 299 301 301 302 303 303 302 300 298 295 294 292 292 291 289 286 285 283 280 274 273 271 269 266 263 262 261 261 262 263 263 262 261 262 262 263 263 264 266 267 267
297 297 299 302 304 305 305 305 304 304 303 300 298 298 296 295 293 290 291 289 284 277 272 270 265 262 257 257 260 262 264 263 261 260 261 261 258 262 266 269 271 271 271
299 299 300 302 305 307 308 311 311 312 310 307 306 302 300 299 296 292 292 288 285 277 270 265 259 259 259 261 262 260 260 261 261 261 261 262 262 268 272 274 273 273 273
306 304 303 305 308 309 311 312 312 314 314 313 312 311 308 308 306 303 302 295 289 282 274 269 261 261 263 261 261 262 264 262 256 255 257 261 264 271 275 280 281 279 277
314 312 311 312 314 316 317 316 317 321 324 325 324 324 322 324 326 328 336 332 318 301 286 274 258 255 269 271 266 257 248 252 251 253 256 266 281 283 287 290 290 289 286
325 324 325 327 329 330 330 329 332 339 345 349 352 353 354 2 11 22 33 47 55 58 66 74 81 69 64 70 79 82 72 41 61 60 353 334 326 318 304 291 290 287 292
342 343 345 347 349 354 358 2 5 11 19 25 32 35 37 47 53 59 66 72 68 70 71 74 73 74 75 78 78 76 75 77 68 56 42 21 354 344 338 332 320 309 306
360 3 9 13 15 22 31 35 38 42 45 49 55 57 61 65 70 74 77 78 74 75 74 75 79 81 84 82 78 75 73 71 66 59 45 31 20 10 2 351 339 332 325
23 28 30 33 39 46 51 55 57 57 58 64 69 71 71 73 77 77 76 77 77 76 73 76 80 84 84 82 77 73 69 64 60 51 44 37 28 17 8 3 353 347 341
43 46 49 52 56 61 65 67 68 67 67 70 72 76 77 77 78 78 76 75 75 74 73 78 80 79 77 74 71 66 61 60 59 55 48 40 31 21 11 359 351 343 340
54 57 61 64 66 68 71 72 72 71 72 73 76 80 81 81 81 80 78 76 75 76 79 79 77 75 74 71 69 66 65 63 59 52 44 37 31 22 13 2 354 346 341
61 65 67 69 70 71 73 75 75 76 78 79 79 80 82 84 82 80 80 79 80 81 79 76 73 72 70 69 66 65 62 57 52 45 39 33 26 19 11 2 355 347 341
64 67 70 72 72 75 77 78 78 79 79 80 82 84 84 83 82 81 81 80 81 78 75 73 70 68 66 64 62 59 55 48 43 38 30 24 16 9 2 357 352 348 343
66 69 73 75 77 80 81 81 80 81 82 84 85 84 83 82 81 80 79 79 79 76 74 73 71 67 62 59 55 51 46 40 34 26 19 12 7 3 358 354 349 345 342
66 72 78 81 83 85 85 85 84 84 85 84 83 83 82 81 80 79 78 78 76 75 73 70 65 60 54 50 47 43 37 30 24 17 10 5 0 356 352 348 343 340 338
72 76 79 82 84 86 85 85 86 86 84 84 83 81 79 77 76 76 76 74 72 70 66 62 58 54 49 43 39 35 29 23 18 11 6 1 357 352 348 344 341 339 338
81 83 84 85 86 86 86 85 86 86 84 83 82 80 78 77 77 76 74 72 69 66 60 56 51 46 41 36 33 28 22 16 10 5 0 356 352 349 346 344 341 339 337
86 87 89 90 90 89 88 86 85 85 84 82 80 77 75 75 76 74 71 68 64 59 52 47 42 37 33 28 23 18 13 8 3 359 355 352 349 346 344 342 340 338 336
90 93 95 95 92 89 88 88 88 86 83 81 77 75 76 75 72 68 64 59 54 48 42 36 30 25 20 15 11 6 2 358 355 352 349 347 345 343 341 339 337 336 335
91 95 97 96 93 90 90 91 89 87 84 80 77 77 76 71 63 57 52 44 37 32 27 23 19 14 10 6 2 359 356 353 351 348 346 344 343 342 340 338 337 335 333
Height
5784 5781 5779 5776 5773 5771 5769 5767 5765 5763 5762 5760 5758 5756 5755 5754 5752 5751 5750 5749 5749 5748 5748 5748 5748 5749 5749 5750 5750 5751 5752 5753 5753 5754 5754 5755 5755 5755 5755 5755 5756 5756 5756
5776 5773 5771 5768 5766 5764 5761 5760 5758 5756 5754 5752 5750 5749 5748 5746 5745 5744 5743 5742 5741 5741 5741 5741 5741 5741 5741 5742 5742 5743 5744 5744 5745 5746 5746 5746 5747 5747 5747 5747 5747 5747 5747
5768 5765 5763 5760 5758 5756 5754 5752 5750 5748 5746 5745 5743 5741 5740 5739 5738 5737 5736 5735 5734 5734 5733 5733 5733 5733 5734 5734 5735 5735 5736 5737 5737 5738 5738 5738 5739 5739 5739 5739 5739 5739 5739
5761 5758 5756 5753 5751 5749 5747 5745 5743 5741 5739 5737 5736 5734 5733 5732 5731 5730 5729 5728 5727 5727 5726 5726 5726 5727 5727 5727 5728 5728 5729 5730 5730 5730 5731 5731 5731 5731 5732 5732 5732 5731 5731
5754 5751 5749 5747 5744 5742 5740 5738 5736 5734 5732 5731 5729 5728 5726 5725 5724 5723 5722 5722 5721 5720 5720 5720 5720 5720 5721 5721 5722 5722 5723 5723 5723 5724 5724 5724 5724 5725 5725 5725 5725 5724 5724
5747 5745 5743 5741 5739 5736 5734 5732 5730 5729 5727 5725 5723 5722 5720 5719 5718 5717 5716 5715 5715 5714 5714 5714 5714 5715 5715 5716 5716 5716 5717 5717 5718 5718 5718 5718 5718 5719 5719 5718 5718 5718 5718
5742 5740 5738 5736 5734 5732 5730 5728 5726 5724 5722 5720 5718 5717 5715 5713 5712 5711 5710 5710 5709 5709 5709 5709 5709 5709 5710 5710 5711 5711 5712 5712 5713 5713 5713 5713 5713 5714 5713 5713 5712 5712 5712
5738 5736 5734 5732 5730 5728 5726 5724 5722 5719 5717 5715 5714 5712 5711 5709 5708 5707 5706 5705 5705 5704 5704 5705 5705 5705 5706 5706 5707 5707 5708 5708 5708 5708 5708 5709 5709 5709 5709 5708 5708 5708 5707
5734 5732 5730 5728 5726 5724 5722 5720 5718 5716 5714 5712 5710 5709 5707 5706 5705 5704 5703 5702 5701 5701 5701 5701 5702 5702 5703 5703 5704 5704 5704 5704 5704 5704 5705 5705 5705 5705 5705 5705 5704 5704 5704
5730 5729 5727 5725 5723 5721 5719 5717 5715 5713 5711 5709 5708 5707 5705 5704 5702 5701 5700 5699 5699 5699 5699 5699 5699 5700 5700 5701 5701 5701 5702 5702 5702 5702 5702 5703 5703 5702 5702 5702 5702 5701 5701
5728 5726 5724 5722 5720 5718 5716 5715 5713 5711 5709 5708 5706 5705 5704 5703 5701 5700 5699 5698 5698 5698 5698 5698 5698 5698 5699 5699 5699 5700 5700 5700 5700 5700 5701 5701 5701 5701 5700 5700 5700 5699 5699
5726 5724 5722 5720 5718 5716 5715 5713 5711 5710 5708 5707 5706 5705 5704 5702 5701 5700 5699 5698 5698 5698 5698 5698 5698 5698 5698 5698 5699 5699 5699 5699 5699 5700 5700 5700 5700 5700 5699 5698 5698 5697 5697
5725 5723 5721 5719 5718 5716 5714 5713 5711 5710 5708 5707 5706 5705 5704 5703 5702 5701 5700 5700 5700 5699 5699 5699 5699 5699 5699 5699 5699 5699 5699 5699 5700 5700 5700 5700 5700 5699 5698 5698 5697 5696 5695
5725 5723 5721 5720 5718 5716 5715 5713 5712 5711 5710 5709 5708 5707 5706 5705 5704 5704 5703 5703 5702 5702 5701 5701 5701 5700 5701 5701 5701 5701 5701 5701 5701 5701 5701 5700 5700 5699 5698 5697 5696 5695 5694
5726 5724 5722 5720 5719 5717 5716 5715 5714 5713 5712 5711 5710 5709 5709 5708 5707 5706 5706 5706 5705 5705 5704 5704 5703 5703 5703 5703 5703 5703 5703 5702 5702 5701 5701 5701 5700 5699 5698 5697 5696 5695 5693
5727 5725 5724 5722 5721 5719 5718 5717 5716 5715 5714 5713 5712 5712 5711 5710 5710 5710 5709 5709 5708 5708 5707 5707 5706 5706 5706 5706 5706 5705 5705 5704 5704 5703 5702 5701 5700 5699 5698 5697 5695 5694 5692
5729 5728 5726 5725 5724 5722 5721 5720 5719 5718 5717 5716 5715 5715 5714 5713 5713 5713 5712 5712 5711 5711 5710 5710 5710 5709 5709 5709 5709 5708 5707 5706 5705 5705 5703 5702 5701 5699 5698 5696 5695 5693 5691
5732 5731 5729 5728 5727 5726 5725 5724 5723 5722 5721 5720 5719 5718 5718 5717 5717 5717 5716 5716 5715 5714 5714 5713 5713 5713 5712 5712 5711 5710 5709 5708 5707 5706 5705 5703 5702 5700 5698 5696 5694 5692 5690
5735 5734 5732 5731 5730 5729 5729 5728 5727 5726 5725 5724 5724 5723 5722 5722 5721 5720 5720 5719 5719 5718 5718 5717 5717 5716 5715 5715 5714 5713 5711 5710 5709 5708 5706 5704 5703 5701 5698 5696 5694 5691 5688
5738 5736 5735 5734 5734 5733 5732 5732 5731 5730 5729 5729 5728 5728 5727 5726 5725 5725 5724 5723 5723 5722 5721 5721 5720 5720 5719 5718 5716 5715 5714 5712 5711 5709 5707 5705 5703 5700 5698 5695 5693 5690 5687
5741 5740 5739 5738 5737 5737 5736 5735 5735 5734 5734 5733 5733 5732 5731 5730 5730 5729 5728 5728 5727 5726 5725 5725 5724 5723 5722 5720 5719 5717 5715 5714 5712 5709 5707 5705 5702 5700 5697 5694 5691 5688 5685
5744 5743 5742 5742 5741 5741 5740 5739 5739 5738 5738 5737 5737 5736 5735 5734 5734 5733 5732 5731 5731 5730 5729 5728 5726 5725 5724 5722 5720 5718 5716 5714 5712 5710 5708 5705 5702 5699 5696 5693 5689 5686 5682
5747 5746 5746 5745 5745 5744 5744 5743 5743 5742 5742 5741 5741 5740 5739 5738 5737 5737 5736 5735 5734 5733 5732 5730 5729 5727 5725 5724 5722 5720 5717 5715 5713 5710 5707 5704 5701 5698 5694 5691 5687 5683 5679
5750 5750 5749 5748 5748 5748 5747 5747 5746 5746 5745 5745 5744 5743 5742 5742 5741 5740 5739 5738 5737 5735 5734 5732 5731 5729 5727 5725 5723 5720 5718 5715 5712 5709 5706 5703 5700 5696 5692 5689 5685 5680 5676
5753 5752 5752 5751 5751 5750 5750 5750 5749 5749 5748 5747 5747 5746 5745 5744 5743 5742 5741 5740 5739 5737 5736 5734 5732 5730 5728 5726 5723 5721 5718 5715 5712 5708 5705 5701 5698 5694 5690 5686 5681 5677 5672
5755 5754 5754 5753 5753 5752 5752 5752 5751 5751 5750 5750 5749 5748 5747 5746 5745 5744 5743 5742 5740 5739 5737 5735 5733 5730 5728 5725 5723 5720 5717 5714 5710 5707 5703 5699 5695 5691 5686 5682 5677 5672 5667